sat.trackr.live / text

‹ back to catalog

STARLINK-2479

NORAD 48136 · 2021-027AW

PAYLOAD ACTIVE UNKNOWN

§ Identity

Operator
Country
US
Launch date
2021-04-07
Launch site
AFETR
Launch vehicle
Mass (kg)
RCS (m²)

Purposes: comms

External: N2YO · Heavens-Above · Gunter

§ Orbital elements

Epoch: 2026-09-20T04:26:41.195328Z

Period
94.01 min
Inclination
53.1611°
Eccentricity
0.0001053
Mean motion
15.31706327 rev/d
Perigee alt
470.0 km
Apogee alt
471.4 km
Semi-major
6,848.9 km
B*
4.2053e-5
RAAN
340.3981°
Arg perigee
68.5717°
Mean anomaly
291.5397°
Rev number
30,231

§ Raw data

STARLINK-24791 48136U 21027AW  26263.18519902  .00000940  00000+0  42053-4 0  99982 48136  53.1611 340.3981 0001053  68.5717 291.5397 15.31706327302312

JSON: /api/v1/satellites/48136 · /tle

For live sub-satellite position, see the globe view (requires WebGL).

§ Visibility from observer

Set your observer location to see the next 7 days of passes ≥ 10°. The values pass through the URL so the page stays shareable.

No JS? Fill the form by hand. The geolocation button needs JavaScript.